When you browse on this site, cookies collect data to enhance your experience and personalize the content and advertising you see.
Visit our Privacy Policy to learn more. By continuing to use the site, you agree to this use of cookies and data.
  • In Hungary
  • List of Countries
  • For 7 days
  • Water Temperature
  • Satellite Maps
  • Weather Map
  • News
  • Weather Widgets
  • user-avatar
    Login

    Hourly Weather Warlow

    Today, 18 November, Sunday

    Time Temperature Precipitation Wind Pressure Humidity
    00:00 -2°C° 0 mm 2 mps 755 mmHg 54%
    01:00 -2°C° 0 mm 2 mps 754 mmHg 57%
    02:00 -2°C° 0 mm 2 mps 754 mmHg 56%
    03:00 -2°C° 0 mm 2 mps 753 mmHg 56%
    04:00 -2°C° 0 mm 2 mps 753 mmHg 55%
    05:00 -2°C° 0 mm 2 mps 752 mmHg 55%
    06:00 0°C° 0 mm 1 mps 752 mmHg 54%
    07:00 0°C° 0 mm 1 mps 752 mmHg 54%
    08:00 +1°C° 0 mm 1 mps 751 mmHg 50%
    09:00 +1°C° 0 mm 2 mps 751 mmHg 46%
    10:00 +2°C° 0 mm 2 mps 751 mmHg 42%
    11:00 +2°C° 0 mm 2 mps 750 mmHg 39%
    12:00 +3°C° 0 mm 2 mps 749 mmHg 37%
    13:00 +3°C° 0 mm 2 mps 749 mmHg 35%
    14:00 +3°C° 0 mm 2 mps 748 mmHg 39%
    15:00 +2°C° 0 mm 2 mps 748 mmHg 43%
    16:00 +1°C° 0 mm 2 mps 747 mmHg 47%
    17:00 +1°C° 0.1 mm 2 mps 747 mmHg 54%
    18:00 +1°C° 0.1 mm 2 mps 747 mmHg 60%
    19:00 -1°C° 0.1 mm 2 mps 746 mmHg 67%
    20:00 -1°C° 0 mm 2 mps 746 mmHg 71%
    21:00 -1°C° 0 mm 2 mps 746 mmHg 76%
    22:00 -1°C° 0 mm 2 mps 746 mmHg 80%
    23:00 -1°C° 0 mm 2 mps 746 mmHg 83%

    Tomorrow, 19 November, Monday

    Time Temperature Precipitation Wind Pressure Humidity
    00:00 -1°C° 0 mm 2 mps 745 mmHg 86%
    01:00 -1°C° 0 mm 2 mps 745 mmHg 89%
    02:00 -1°C° 0.1 mm 3 mps 745 mmHg 89%
    03:00 0°C° 0.1 mm 3 mps 745 mmHg 89%
    04:00 -1°C° 0.1 mm 4 mps 745 mmHg 88%
    05:00 -1°C° 0.1 mm 4 mps 745 mmHg 87%
    06:00 -1°C° 0.1 mm 4 mps 745 mmHg 86%
    07:00 -1°C° 0.1 mm 4 mps 744 mmHg 85%
    08:00 -1°C° 0 mm 4 mps 745 mmHg 82%
    09:00 0°C° 0 mm 5 mps 745 mmHg 78%
    10:00 0°C° 0 mm 5 mps 745 mmHg 75%
    11:00 0°C° 0 mm 5 mps 745 mmHg 71%
    12:00 +1°C° 0 mm 5 mps 745 mmHg 67%
    13:00 +1°C° 0 mm 5 mps 745 mmHg 63%
    14:00 0°C° 0 mm 5 mps 745 mmHg 66%
    15:00 0°C° 0 mm 5 mps 745 mmHg 70%
    16:00 -1°C° 0 mm 4 mps 745 mmHg 73%
    17:00 -1°C° 0 mm 4 mps 745 mmHg 75%
    18:00 -1°C° 0 mm 5 mps 745 mmHg 77%
    19:00 -2°C° 0 mm 5 mps 745 mmHg 79%
    20:00 -2°C° 0 mm 5 mps 746 mmHg 79%
    21:00 -2°C° 0 mm 5 mps 746 mmHg 79%
    22:00 -4°C° 0 mm 5 mps 746 mmHg 79%
    23:00 -4°C° 0 mm 5 mps 746 mmHg 79%

    Day after tomorrow, 20 November, Tuesday

    Time Temperature Precipitation Wind Pressure Humidity
    00:00 -4°C° 0 mm 5 mps 746 mmHg 79%
    01:00 -4°C° 0 mm 5 mps 746 mmHg 80%
    02:00 -4°C° 0 mm 5 mps 745 mmHg 80%
    03:00 -4°C° 0 mm 5 mps 745 mmHg 80%
    04:00 -4°C° 0 mm 5 mps 745 mmHg 80%
    05:00 -4°C° 0 mm 5 mps 745 mmHg 79%
    06:00 -4°C° 0 mm 5 mps 745 mmHg 79%
    07:00 -4°C° 0 mm 5 mps 745 mmHg 78%
    08:00 -4°C° 0 mm 5 mps 745 mmHg 74%
    09:00 -3°C° 0 mm 6 mps 745 mmHg 69%
    10:00 -2°C° 0 mm 6 mps 745 mmHg 64%
    11:00 -1°C° 0 mm 6 mps 744 mmHg 62%
    12:00 -1°C° 0 mm 6 mps 743 mmHg 59%
    13:00 +1°C° 0 mm 6 mps 743 mmHg 57%
    14:00 +1°C° 0 mm 6 mps 742 mmHg 60%
    15:00 -1°C° 0 mm 6 mps 742 mmHg 63%
    16:00 -2°C° 0 mm 6 mps 742 mmHg 67%
    17:00 -2°C° 0 mm 6 mps 742 mmHg 68%
    18:00 -2°C° 0 mm 6 mps 742 mmHg 69%
    19:00 -2°C° 0 mm 6 mps 741 mmHg 71%
    20:00 -2°C° 0.2 mm 6 mps 741 mmHg 73%
    21:00 -2°C° 0.2 mm 6 mps 741 mmHg 75%
    22:00 -2°C° 0.2 mm 6 mps 741 mmHg 76%
    23:00 -1°C° 0.3 mm 5 mps 741 mmHg 79%

    21 November, Wednesday

    Time Temperature Precipitation Wind Pressure Humidity
    00:00 -1°C° 0.3 mm 5 mps 741 mmHg 82%
    01:00 -1°C° 0.3 mm 5 mps 741 mmHg 85%
    02:00 -1°C° 0.1 mm 5 mps 741 mmHg 85%
    03:00 -1°C° 0.1 mm 5 mps 741 mmHg 86%
    04:00 -1°C° 0.1 mm 5 mps 741 mmHg 86%
    05:00 -1°C° 0.1 mm 5 mps 742 mmHg 86%
    06:00 -1°C° 0.1 mm 5 mps 742 mmHg 86%
    07:00 -1°C° 0.1 mm 5 mps 742 mmHg 86%
    08:00 -1°C° 0.1 mm 5 mps 742 mmHg 85%
    09:00 0°C° 0.1 mm 5 mps 742 mmHg 84%
    10:00 0°C° 0.1 mm 5 mps 743 mmHg 83%
    11:00 0°C° 0 mm 5 mps 743 mmHg 82%
    12:00 +1°C° 0 mm 5 mps 743 mmHg 81%
    13:00 +1°C° 0 mm 5 mps 743 mmHg 79%
    14:00 +1°C° 0 mm 5 mps 743 mmHg 80%
    15:00 0°C° 0 mm 5 mps 743 mmHg 81%
    16:00 0°C° 0 mm 5 mps 743 mmHg 82%
    17:00 0°C° 0 mm 5 mps 743 mmHg 81%
    18:00 0°C° 0 mm 5 mps 744 mmHg 81%
    19:00 0°C° 0 mm 5 mps 744 mmHg 81%
    20:00 0°C° 0 mm 5 mps 744 mmHg 81%
    21:00 0°C° 0 mm 5 mps 744 mmHg 82%
    22:00 0°C° 0 mm 5 mps 744 mmHg 82%
    23:00 -1°C° 0 mm 5 mps 744 mmHg 82%

    22 November, Thursday

    Time Temperature Precipitation Wind Pressure Humidity
    00:00 -1°C° 0 mm 5 mps 744 mmHg 82%
    01:00 -1°C° 0 mm 5 mps 744 mmHg 82%
    02:00 -1°C° 0 mm 5 mps 744 mmHg 82%
    03:00 -1°C° 0 mm 5 mps 744 mmHg 82%
    04:00 -1°C° 0 mm 5 mps 744 mmHg 82%
    05:00 -1°C° 0 mm 5 mps 745 mmHg 82%
    06:00 -1°C° 0 mm 4 mps 745 mmHg 83%
    07:00 -1°C° 0 mm 4 mps 745 mmHg 83%
    08:00 -1°C° 0 mm 4 mps 745 mmHg 82%
    09:00 0°C° 0 mm 5 mps 745 mmHg 82%
    10:00 0°C° 0 mm 5 mps 746 mmHg 81%
    11:00 0°C° 0 mm 5 mps 746 mmHg 80%
    12:00 +1°C° 0 mm 4 mps 746 mmHg 80%
    13:00 +1°C° 0 mm 4 mps 746 mmHg 79%
    14:00 +1°C° 0.1 mm 4 mps 746 mmHg 80%
    15:00 +1°C° 0.1 mm 4 mps 746 mmHg 81%
    16:00 +1°C° 0.1 mm 4 mps 746 mmHg 82%
    17:00 +1°C° 0.1 mm 4 mps 746 mmHg 82%
    18:00 +1°C° 0.1 mm 4 mps 746 mmHg 83%
    19:00 +1°C° 0.1 mm 3 mps 747 mmHg 84%
    20:00 +1°C° 0.1 mm 3 mps 747 mmHg 84%
    21:00 +1°C° 0.1 mm 3 mps 747 mmHg 84%
    22:00 +1°C° 0.1 mm 3 mps 747 mmHg 85%
    23:00 +1°C° 0.1 mm 3 mps 747 mmHg 86%

    23 November, Friday

    Time Temperature Precipitation Wind Pressure Humidity
    00:00 +1°C° 0.1 mm 3 mps 747 mmHg 87%
    01:00 +1°C° 0.1 mm 3 mps 747 mmHg 88%
    02:00 +1°C° 0 mm 3 mps 747 mmHg 88%
    03:00 +2°C° 0 mm 2 mps 747 mmHg 89%
    04:00 +2°C° 0 mm 2 mps 747 mmHg 89%
    05:00 +2°C° 0 mm 2 mps 747 mmHg 90%
    06:00 +2°C° 0 mm 2 mps 747 mmHg 90%
    07:00 +3°C° 0 mm 2 mps 747 mmHg 90%
    08:00 +3°C° 0 mm 2 mps 748 mmHg 88%
    09:00 +4°C° 0 mm 2 mps 748 mmHg 86%
    10:00 +5°C° 0 mm 2 mps 748 mmHg 84%
    11:00 +6°C° 0 mm 2 mps 748 mmHg 82%
    12:00 +7°C° 0 mm 2 mps 748 mmHg 79%
    13:00 +8°C° 0 mm 2 mps 747 mmHg 77%
    14:00 +7°C° 0 mm 2 mps 747 mmHg 80%
    15:00 +7°C° 0 mm 2 mps 747 mmHg 83%
    16:00 +6°C° 0 mm 2 mps 747 mmHg 85%
    17:00 +6°C° 0 mm 2 mps 747 mmHg 86%
    18:00 +6°C° 0 mm 2 mps 747 mmHg 86%
    19:00 +6°C° 0 mm 2 mps 747 mmHg 87%
    20:00 +6°C° 0 mm 2 mps 747 mmHg 87%
    21:00 +6°C° 0 mm 2 mps 747 mmHg 88%
    22:00 +6°C° 0 mm 2 mps 747 mmHg 88%
    23:00 +6°C° 0 mm 2 mps 747 mmHg 89%
    Show more